{"data":{"norad_id":68409,"epoch":"2026-05-24T22:32:04.066944Z","epoch_age_seconds":90734,"freshness":"FRESH","line1":"1 68409U 26065B   26144.93893596  .00006579  00000+0  31760-3 0  9991","line2":"2 68409  97.4040  25.9480 0015868  81.8284 278.4750 15.18886587  8716","mean_motion":15.18886587,"eccentricity":0.0015868,"inclination_deg":97.404,"raan_deg":25.948,"arg_perigee_deg":81.8284,"mean_anomaly_deg":278.475,"bstar":0.0003176,"rev_number":871,"period_min":94.806288522449,"perigee_km":498.27554883015,"apogee_km":520.13321544049,"semimajor_km":6887.3413821353,"source":"CELESTRAK","updated_at":"2026-05-25T13:38:07.808959Z"}}